OPTUS C1

Last updated on Tue Sep 22 2026 00:03:10 GMT+0000 (Coordinated Universal Time)

1 27831U 03028B 26264.51640000 -.00000151 00000+0 00000+0 0 9996 2 27831 7.1239 68.2009 0005523 109.4906 164.3880 1.00272471 54029
UTC large
Height (km)
Speed (km/s)
/
Latitude / Longitude
Inclination (degrees)
Orbital Period (minutes)
Azimuth
Elevation
Range (km)
Doppler Factor

Next 0 passes for location: London (51.5072 / 0.1276)

No passes found over London.
OPTUS C1